The Dalles, WA

6:34 AM PST on November 21, 2017 (GMT -0800)
Columbia Gorge Regional-The Dalles

Weather History for KDLS - January, 2013

Change the Weather History Date:

Thursday, January 10, 2013

  Actual Average Record
Temperature  
Mean Temperature 38 °F -  
Max Temperature 45 °F 37 °F 57 °F (1983)
Min Temperature 30 °F 28 °F 4 °F (1993)
Degree Days  
Heating Degree Days 28    
Moisture  
Dew Point 28 °F    
Average Humidity 68    
Maximum Humidity 85    
Minimum Humidity 48    
Precipitation  
Precipitation 0.00 in - - ()
Sea Level Pressure  
Sea Level Pressure 30.00 in    
Wind  
Wind Speed 9 mph (WNW)    
Max Wind Speed 20 mph    
Max Gust Speed 26 mph    
Visibility 10 miles    
Events      
Averages and records for this station are not official NWS values.
T = Trace of Precipitation, MM = Missing Value Source: NWS Daily Summary

Daily Weather History Graph

Daily Weather History Graph

Search for Another Location

Airport or City:

Trip Planner

Search our weather history database for the weather conditions in past years. The results will help you decide how hot, cold, wet, or windy it might be!

Date:

Astronomy

Jan. 10, 2013 Rise Set
Actual Time 7:43 AM PST 4:41 PM PST
Civil Twilight 7:10 AM PST 5:15 PM PST
Nautical Twilight 6:32 AM PST 5:52 PM PST
Astronomical Twilight 5:57 AM PST 6:27 PM PST
Moon 6:28 AM PST (1/10) 3:56 PM PST (1/10)
Length of Visible Light 10h 05m
Length of Day
8h 58m
Waning Crescent, 1% of the Moon is Illuminated
Jan 10
Waning Crescent
Jan 11
New
Jan 18
First Quarter
Jan 26
Full
Feb 3
Last Quarter

Hourly Weather History & Observations

Time (PST) Temp. Windchill Dew Point Humidity Pressure Visibility Wind Dir Wind Speed Gust Speed Precip Events Conditions
12:53 AM 34.0 °F 28.8 °F 28.9 °F 82% 29.95 in 10.0 mi NW 5.8 mph - N/A   Clear
1:53 AM 34.0 °F 27.2 °F 28.9 °F 82% 29.95 in 10.0 mi WNW 8.1 mph - N/A   Clear
2:53 AM 35.1 °F 29.3 °F 28.9 °F 78% 29.96 in 10.0 mi WNW 6.9 mph - N/A   Clear
3:53 AM 30.9 °F 25.2 °F 27.0 °F 85% 29.96 in 10.0 mi SW 5.8 mph - N/A   Clear
4:53 AM 33.1 °F - 27.0 °F 78% 29.96 in 10.0 mi Calm Calm - N/A   Clear
5:53 AM 36.0 °F 32.1 °F 28.0 °F 73% 29.97 in 10.0 mi West 4.6 mph - N/A   Overcast
6:53 AM 36.0 °F 32.1 °F 28.9 °F 76% 30.00 in 10.0 mi Variable 4.6 mph - N/A   Overcast
7:53 AM 37.0 °F 28.9 °F 28.9 °F 73% 30.00 in 10.0 mi West 12.7 mph - N/A   Clear
8:53 AM 37.9 °F 35.5 °F 28.9 °F 70% 30.03 in 10.0 mi NW 3.5 mph - N/A   Clear
9:53 AM 39.9 °F 31.8 °F 30.0 °F 68% 30.02 in 10.0 mi WNW 15.0 mph 23.0 mph N/A   Clear
10:53 AM 42.1 °F 33.9 °F 30.0 °F 62% 30.01 in 10.0 mi West 17.3 mph 23.0 mph N/A   Clear
11:53 AM 44.1 °F 36.2 °F 28.9 °F 55% 30.00 in 10.0 mi WNW 18.4 mph 24.2 mph N/A   Clear
12:53 PM 45.0 °F 37.6 °F 27.0 °F 49% 29.98 in 10.0 mi WNW 17.3 mph 26.5 mph N/A   Clear
1:53 PM 45.0 °F 37.1 °F 26.1 °F 48% 29.98 in 10.0 mi WNW 19.6 mph 26.5 mph N/A   Clear
2:53 PM 44.1 °F 36.8 °F 27.0 °F 51% 29.99 in 10.0 mi WNW 16.1 mph 25.3 mph N/A   Clear
3:53 PM 42.1 °F 34.5 °F 27.0 °F 55% 30.01 in 10.0 mi West 15.0 mph 24.2 mph N/A   Clear
4:53 PM 39.0 °F 32.3 °F 28.0 °F 65% 30.02 in 10.0 mi NNW 10.4 mph - N/A   Scattered Clouds
5:53 PM 37.9 °F 30.5 °F 28.0 °F 68% 30.02 in 10.0 mi NW 11.5 mph - N/A   Partly Cloudy
6:53 PM 37.0 °F 31.6 °F 28.0 °F 70% 30.03 in 10.0 mi NW 6.9 mph - N/A   Mostly Cloudy
7:53 PM 37.9 °F 30.0 °F 27.0 °F 65% 30.02 in 10.0 mi West 12.7 mph - N/A   Clear
8:53 PM 37.0 °F 31.0 °F 27.0 °F 67% 30.03 in 10.0 mi West 8.1 mph - N/A   Partly Cloudy
9:53 PM 37.0 °F 28.9 °F 28.0 °F 70% 30.04 in 10.0 mi West 12.7 mph 19.6 mph N/A   Partly Cloudy
10:53 PM 36.0 °F 29.6 °F 26.1 °F 67% 30.04 in 10.0 mi NNW 8.1 mph - N/A   Clear
11:53 PM 36.0 °F 29.0 °F 25.0 °F 64% 30.05 in 10.0 mi WNW 9.2 mph - N/A   Clear